User: anonymous   Login
Location: Unspecified
(0.0000°N, 0.0000°E)
Time: 09:47:45
(UTC+00:00)
Language:

Injun/Solrad 3 - Orbit

View from above orbital plane
View from above orbital plane
View from above satellite
View from above satellite

Ground track
Ground track

The orbit is defined by the following mean orbital elements,

1 00117U          26128.16020457 +.00000000 +00000-0 +47182-4 0 00002
2 00117  66.8107 102.7276 0081860 321.9247  37.6063 13.90186621    07
Epoch (UTC): 08 May 2026 03:50:41
Eccentricity: 0.0081860
inclination: 66.8107°
perigee height: 868 km
apogee height: 988 km
right ascension of ascending node: 102.7276°
argument of perigee: 321.9247°
revolutions per day: 13.90186621
mean anomaly at epoch: 37.6063°

The dashed part of the orbit path shows where the satellite is in the earth's shadow,  

DLR